Find MEV-2

NORAD ID: 46113 Int'l Des: 2020-056 Owner: SPLOG Country: US operational
HEOCIRCULARGSOGEO

当前视图

正在加载3D地球...

About MEV-2

MEV-2 (NORAD 46113) is a satellite launched Aug 15, 2020 by SPLOG of US. It operates in HEO, CIRCULAR, GSO, GEO orbit with a mass of 2326.00 kg.

即将过境

Passes for default location (London). Set your location on the main map for personalized predictions.

高度历史

Loading altitude history...

两行轨道根数

1 46113U 20056B 26194.84592137 -.00000016 00000-0 00000+0 0 9996
2 46113 0.0548 249.8883 0000504 343.0769 2.2756 1.00271184 80988
Epoch: Jul 13, 2026 • Age: 11 hours

当前状态

高度 35788.3 km
远地点 / 近地点 N/A
速度 3.07 km/s
星下点 0.03°N, 1°W
发射日期 Aug 15, 2020
运行时间 5.9 years
类型 other

技术详情

分类 Payload
质量 2326.00 kg
干质量 2000.00 kg
总质量 2326.00 kg
长度 5.00 m
直径 2.50 m
跨度 25.00 m
形状 Box + 2 pan
制造商 NGISD
平台类型 Geostar-3
阶段状态 Docked
所有者/国家 SPLOG/US

Most Searched